User: anonymous   Login
Location: Unspecified
(0.0000°N, 0.0000°E)
Time: 17:19:14
(UTC+00:00)
Language:

USA 186 - Orbit

View from above orbital plane
View from above orbital plane
View from above satellite
View from above satellite

Ground track
Ground track

The orbit data is extracted from the following two-line orbital elements,

1 28888U 05042A   17176.11032319 0.00022000  00000-0  90806-4 0    01
2 28888  96.8729 215.2293 0152979  75.6479 284.3519 15.70107973    04
Epoch (UTC): 25 June 2017 02:38:51
Eccentricity: 0.0152979
inclination: 96.8729°
perigee height: 255 km
apogee height: 461 km
right ascension of ascending node: 215.2293°
argument of perigee: 75.6479°
revolutions per day: 15.70107973
mean anomaly at epoch: 284.3519°
orbit number at epoch: 0

The dashed part of the orbit path shows where the satellite is in the earth's shadow,  

DLR